sat.trackr.live / text

‹ back to catalog

ONEWEB-0048

NORAD 45153 · 2020-008Y

PAYLOAD ACTIVE UNKNOWN

§ Identity

Operator
Country
UK
Launch date
2020-02-06
Launch site
TYMSC
Launch vehicle
Mass (kg)
RCS (m²)

Purposes: comms

External: N2YO · Heavens-Above · Gunter

§ Orbital elements

Epoch: 2026-05-25T03:51:10.770048Z

Period
109.89 min
Inclination
87.8853°
Eccentricity
0.0001779
Mean motion
13.10373138 rev/d
Perigee alt
1,220.4 km
Apogee alt
1,223.1 km
Semi-major
7,599.9 km
B*
1.9016e-3
RAAN
40.8717°
Arg perigee
77.6347°
Mean anomaly
282.4979°
Rev number
30,479

§ Raw data

ONEWEB-00481 45153U 20008Y   26145.16054132  .00000677  00000+0  19016-2 0  99962 45153  87.8853  40.8717 0001779  77.6347 282.4979 13.10373138304798

JSON: /api/v1/satellites/45153 · /tle

For live sub-satellite position, see the globe view (requires WebGL).

§ Visibility from observer

Set your observer location to see the next 7 days of passes ≥ 10°. The values pass through the URL so the page stays shareable.

No JS? Fill the form by hand. The geolocation button needs JavaScript.